FENGYUN 1C DEB

Satellite information

Favourite Embed

Satellite Type and Status

DEBRISIN ORBIT

Key statistics

Satellite FENGYUN 1C DEB at a glance.

Uptime

9715

Days in orbit

Revolutions

≈ 14.3

Per day

Orbit

SSO

Sun Synchronous Orbit

Inclination

98.4

Latest

Satellite identification and parameters

Extended collection of information and parameters for FENGYUN 1C DEB.

Object identification

Identified? True

Debris? True

Object name: FENGYUN 1C DEB

International designator: 1999-025BDJ

Object number (NORAD): 31016

Object ID (CCSDS): 31016

Country: PEOPLES REPUBLIC OF CHINA (PRC)

Current information (Y/N): Y

RCS size: SMALL

Orbital parameters

Period: 100.665 minutes

Inclination: 98.4364 deg

SMA: 7168.223 km

Apoapsis: 870.425 km

Periapsis: 709.751 km

RAAN: 1.8661 deg

Eccentricy: 0.0112074

Argument of periapsis: 276.3513 deg

Mean anomaly: 111.2297 deg

Mean motion: 14.30492284 rev/day

Mean motion (dot): 0.0000116 rev/day2

B* drag term: 0.00043184 1/REarth

Two-line elements (TLE)

Creation date: Dec. 12, 2025, 7:26 a.m.

Reference frame: TEME

Reference center: EARTH

Epoch: Dec. 12, 2025, 12:26 a.m. UTC

TLE line 0: 0 FENGYUN 1C DEB

TLE line 1: 1 31016U 99025BDJ 25346.01807002 .00001160 00000-0 43184-3 0 9995

TLE line 2: 2 31016 98.4364 1.8661 0112074 276.3513 111.2297 14.30492284974607

Live tracking on map

Real-time ground track for satellite FENGYUN 1C DEB.

In-orbit conjunctions

A list of the most updated potential collisions computed for object FENGYUN 1C DEB.

Target Orbit TCA Probability of collision Miss distance Type
THOR BURNER 2 R/B SSO 2025-10-30 17:43:14 0.000943758 61.0 (m) ROCKET BODY
COSMOS 2278 LEO 2025-10-26 09:55:01 0.0001287913 279.0 (m) PAYLOAD
NOAA 16 DEB SSO 2025-07-15 17:05:56 0.0001177727 275.0 (m) DEBRIS
SL-8 R/B LEO 2025-05-25 15:07:54 0.0009365893 91.0 (m) ROCKET BODY

Associated space launch

Chinese polar orbiting meteorological satellite

FENGYUN 1C DEB was lifted into orbit during the mission ‘Long March 4B | Feng Yun 1C’, on board a Long March 4B space rocket.

The launch took place on May 10, 1999, 1:33 a.m. from Launch Complex 7.

For more information about the launch, click the button.

Launch to space Long March 4B | Feng Yun 1C
Long March 4B | Feng Yun 1C

Agency: N/A

Status: Launch Successful

Launch date: May 10, 1999, 1:33 a.m. UTC

Rocket: Long March 4B

Launch pad: Launch Complex 7

Location: Taiyuan Satellite Launch Center, People's Republic of China

...

Latest news about this satellite

There are no fresh news available about this satellite. Check back as we update our databases every day.


Newsletter sign-up

Weekly statistics, charts and insights to help you stay on top of the space industry.